This is the latest recevied weather packets stored in our database for station/object HG8GL-6. If no packets are shown the sender has not sent any weather packets the latest 10 day(s).
| Time | Temp. | Humidity | Pressure | Rain* | Wind** | Luminosity | Snow |
|---|---|---|---|---|---|---|---|
| 1778062878 | 23.89° C | 39% | 1012 hPa | 0 mm | - | - | - |
| 1778062247 | 23.89° C | 38% | 1012 hPa | 0 mm | - | - | - |
| 1778061647 | 24.44° C | 38% | 1012 hPa | 0 mm | - | - | - |
| 1778061017 | 24.44° C | 39% | 1012 hPa | 0 mm | - | - | - |
| 1778060417 | 25° C | 39% | 1012.2 hPa | 0 mm | - | - | - |
| 1778059787 | 24.44° C | 39% | 1013 hPa | 0 mm | - | - | - |
| 1778059157 | 24.44° C | 40% | 1012 hPa | 0 mm | - | - | - |
| 1778058527 | 23.89° C | 41% | 1012 hPa | 0 mm | - | - | - |
| 1778057897 | 23.89° C | 42% | 1012 hPa | 0 mm | - | - | - |
| 1778057297 | 23.33° C | 42% | 1012 hPa | 0 mm | - | - | - |
| 1778056697 | 22.78° C | 42% | 1013 hPa | 0 mm | - | - | - |
| 1778056067 | 22.78° C | 42% | 1013 hPa | 0 mm | - | - | - |
| 1778055437 | 22.78° C | 43% | 1012 hPa | 0 mm | - | - | - |
| 1778054807 | 22.22° C | 44% | 1013 hPa | 0 mm | - | - | - |
| 1778054177 | 21.67° C | 44% | 1013 hPa | 0 mm | - | - | - |
| 1778053547 | 21.67° C | 45% | 1012 hPa | 0 mm | - | - | - |
| 1778052947 | 21.67° C | 45% | 1012 hPa | 0 mm | - | - | - |
| 1778052317 | 21.67° C | 46% | 1012.1 hPa | 0 mm | - | - | - |
| 1778051717 | 21.11° C | 48% | 1013 hPa | 0 mm | - | - | - |
| 1778051117 | 20.56° C | 48% | 1013 hPa | 0 mm | - | - | - |
| 1778050487 | 20° C | 49% | 1013 hPa | 0 mm | - | - | - |
| 1778049857 | 19.44° C | 50% | 1013 hPa | 0 mm | - | - | - |
| 1778049227 | 18.89° C | 52% | 1013 hPa | 0 mm | - | - | - |
| 1778048597 | 18.89° C | 54% | 1012 hPa | 0 mm | - | - | - |
| 1778047967 | 18.33° C | 55% | 1012 hPa | 0 mm | - | - | - |
* Rain latest hour (hover to see other rain measurements)
** Current wind speed in m/s (hover to see current wind gust speed)